When you browse on this site, cookies collect data to enhance your experience and personalize the content and advertising you see.
Visit our Privacy Policy to learn more. By continuing to use the site, you agree to this use of cookies and data.
  • In Netherlands
  • List of Countries
  • For 7 days
  • Water Temperature
  • Satellite Maps
  • Weather Map
  • Weather Widgets
  • user-avatar
    Login

    Hourly Weather Cambridge

    Today, 17 June, Monday

    Time Temperature Precipitation Wind Pressure Humidity
    00:00 +11°C° 0 mm 4 mps 762 mmHg 92%
    01:00 +11°C° 0 mm 4 mps 761 mmHg 93%
    02:00 +10°C° 0 mm 4 mps 761 mmHg 94%
    03:00 +10°C° 0 mm 4 mps 761 mmHg 95%
    04:00 +11°C° 0 mm 4 mps 761 mmHg 93%
    05:00 +12°C° 0 mm 5 mps 761 mmHg 90%
    06:00 +13°C° 0 mm 5 mps 761 mmHg 88%
    07:00 +13°C° 0 mm 5 mps 762 mmHg 85%
    08:00 +14°C° 0 mm 5 mps 762 mmHg 82%
    09:00 +15°C° 0 mm 6 mps 762 mmHg 80%
    10:00 +16°C° 0 mm 6 mps 762 mmHg 78%
    11:00 +17°C° 0 mm 6 mps 761 mmHg 76%
    12:00 +17°C° 0 mm 6 mps 761 mmHg 74%
    13:00 +17°C° 0 mm 6 mps 761 mmHg 74%
    14:00 +17°C° 0 mm 5 mps 761 mmHg 75%
    15:00 +17°C° 0 mm 5 mps 761 mmHg 75%
    16:00 +17°C° 0 mm 5 mps 761 mmHg 77%
    17:00 +18°C° 0 mm 4 mps 760 mmHg 80%
    18:00 +17°C° 0 mm 4 mps 760 mmHg 82%
    19:00 +15°C° 0 mm 4 mps 761 mmHg 85%
    20:00 +14°C° 0 mm 4 mps 761 mmHg 88%
    21:00 +12°C° 0 mm 3 mps 761 mmHg 91%
    22:00 +12°C° 0 mm 3 mps 761 mmHg 93%
    23:00 +11°C° 0 mm 3 mps 761 mmHg 94%

    Tomorrow, 18 June, Tuesday

    Time Temperature Precipitation Wind Pressure Humidity
    00:00 +11°C° 0 mm 3 mps 761 mmHg 95%
    01:00 +10°C° 0 mm 3 mps 761 mmHg 95%
    02:00 +10°C° 0 mm 2 mps 760 mmHg 95%
    03:00 +10°C° 0 mm 2 mps 760 mmHg 95%
    04:00 +12°C° 0 mm 2 mps 760 mmHg 94%
    05:00 +12°C° 0 mm 2 mps 760 mmHg 93%
    06:00 +13°C° 0 mm 2 mps 760 mmHg 92%
    07:00 +15°C° 0 mm 2 mps 760 mmHg 87%
    08:00 +16°C° 0 mm 2 mps 760 mmHg 83%
    09:00 +18°C° 0 mm 2 mps 760 mmHg 79%
    10:00 +18°C° 0 mm 2 mps 760 mmHg 75%
    11:00 +19°C° 0 mm 2 mps 759 mmHg 72%
    12:00 +20°C° 0 mm 2 mps 759 mmHg 69%
    13:00 +21°C° 0 mm 2 mps 759 mmHg 70%
    14:00 +21°C° 0 mm 2 mps 758 mmHg 71%
    15:00 +21°C° 0 mm 2 mps 758 mmHg 71%
    16:00 +20°C° 0.8 mm 2 mps 757 mmHg 78%
    17:00 +18°C° 0.8 mm 2 mps 757 mmHg 86%
    18:00 +17°C° 0.8 mm 2 mps 757 mmHg 93%
    19:00 +16°C° 0.2 mm 2 mps 757 mmHg 93%
    20:00 +15°C° 0.2 mm 2 mps 757 mmHg 94%
    21:00 +15°C° 0.2 mm 2 mps 757 mmHg 94%
    22:00 +14°C° 0 mm 2 mps 756 mmHg 95%
    23:00 +14°C° 0 mm 2 mps 756 mmHg 95%

    Day after tomorrow, 19 June, Wednesday

    Time Temperature Precipitation Wind Pressure Humidity
    00:00 +14°C° 0 mm 2 mps 755 mmHg 96%
    01:00 +14°C° 0.1 mm 2 mps 755 mmHg 96%
    02:00 +14°C° 0.1 mm 2 mps 754 mmHg 96%
    03:00 +14°C° 0.1 mm 2 mps 753 mmHg 96%
    04:00 +15°C° 4.3 mm 2 mps 753 mmHg 97%
    05:00 +14°C° 4.3 mm 3 mps 752 mmHg 98%
    06:00 +14°C° 4.3 mm 4 mps 752 mmHg 99%
    07:00 +16°C° 0.2 mm 3 mps 752 mmHg 97%
    08:00 +17°C° 0.2 mm 2 mps 752 mmHg 95%
    09:00 +19°C° 0.2 mm 1 mps 752 mmHg 93%
    10:00 +18°C° 0.7 mm 2 mps 752 mmHg 93%
    11:00 +18°C° 0.7 mm 3 mps 751 mmHg 94%
    12:00 +18°C° 0.7 mm 4 mps 751 mmHg 94%
    13:00 +17°C° 0.2 mm 5 mps 751 mmHg 93%
    14:00 +17°C° 0.2 mm 5 mps 752 mmHg 91%
    15:00 +17°C° 0.2 mm 5 mps 752 mmHg 89%
    16:00 +16°C° 0.1 mm 5 mps 752 mmHg 90%
    17:00 +15°C° 0.1 mm 5 mps 753 mmHg 92%
    18:00 +14°C° 0.1 mm 5 mps 753 mmHg 93%
    19:00 +13°C° 0 mm 4 mps 754 mmHg 94%
    20:00 +12°C° 0 mm 4 mps 755 mmHg 95%
    21:00 +11°C° 0 mm 3 mps 755 mmHg 96%
    22:00 +11°C° 0 mm 3 mps 755 mmHg 96%
    23:00 +11°C° 0 mm 3 mps 755 mmHg 96%

    20 June, Thursday

    Time Temperature Precipitation Wind Pressure Humidity
    00:00 +10°C° 0 mm 2 mps 756 mmHg 96%
    01:00 +10°C° 0 mm 3 mps 756 mmHg 95%
    02:00 +9°C° 0 mm 3 mps 756 mmHg 95%
    03:00 +9°C° 0 mm 3 mps 756 mmHg 95%
    04:00 +10°C° 0 mm 3 mps 756 mmHg 94%
    05:00 +10°C° 0 mm 3 mps 756 mmHg 92%
    06:00 +11°C° 0 mm 3 mps 757 mmHg 91%
    07:00 +12°C° 0 mm 4 mps 757 mmHg 88%
    08:00 +14°C° 0 mm 4 mps 757 mmHg 84%
    09:00 +15°C° 0 mm 4 mps 757 mmHg 81%
    10:00 +15°C° 0.2 mm 4 mps 757 mmHg 78%
    11:00 +17°C° 0.2 mm 4 mps 757 mmHg 76%
    12:00 +17°C° 0.2 mm 5 mps 757 mmHg 74%
    13:00 +17°C° 0.1 mm 5 mps 757 mmHg 73%
    14:00 +17°C° 0.1 mm 5 mps 757 mmHg 71%
    15:00 +19°C° 0.1 mm 5 mps 757 mmHg 69%
    16:00 +17°C° 0.2 mm 5 mps 757 mmHg 74%
    17:00 +17°C° 0.2 mm 4 mps 757 mmHg 79%
    18:00 +15°C° 0.2 mm 4 mps 757 mmHg 84%
    19:00 +14°C° 0 mm 4 mps 758 mmHg 86%
    20:00 +13°C° 0 mm 3 mps 758 mmHg 89%
    21:00 +11°C° 0 mm 3 mps 758 mmHg 91%
    22:00 +11°C° 0 mm 3 mps 758 mmHg 91%
    23:00 +10°C° 0 mm 3 mps 758 mmHg 90%

    21 June, Friday

    Time Temperature Precipitation Wind Pressure Humidity
    00:00 +10°C° 0 mm 3 mps 758 mmHg 90%
    01:00 +9°C° 0 mm 3 mps 758 mmHg 92%
    02:00 +9°C° 0 mm 3 mps 759 mmHg 93%
    03:00 +8°C° 0 mm 3 mps 759 mmHg 95%
    04:00 +8°C° 0 mm 4 mps 759 mmHg 93%
    05:00 +10°C° 0 mm 4 mps 759 mmHg 91%
    06:00 +10°C° 0 mm 5 mps 759 mmHg 89%
    07:00 +12°C° 0 mm 5 mps 759 mmHg 85%
    08:00 +13°C° 0 mm 5 mps 760 mmHg 82%
    09:00 +15°C° 0 mm 4 mps 760 mmHg 78%
    10:00 +15°C° 0.3 mm 4 mps 760 mmHg 78%
    11:00 +15°C° 0.3 mm 4 mps 760 mmHg 77%
    12:00 +17°C° 0.3 mm 4 mps 760 mmHg 77%
    13:00 +17°C° 0.1 mm 4 mps 760 mmHg 74%
    14:00 +18°C° 0.1 mm 4 mps 760 mmHg 71%
    15:00 +19°C° 0.1 mm 4 mps 760 mmHg 68%
    16:00 +18°C° 0.1 mm 3 mps 760 mmHg 71%
    17:00 +18°C° 0.1 mm 3 mps 760 mmHg 75%
    18:00 +17°C° 0.1 mm 2 mps 761 mmHg 78%
    19:00 +16°C° 0 mm 2 mps 761 mmHg 82%
    20:00 +14°C° 0 mm 1 mps 761 mmHg 85%
    21:00 +13°C° 0 mm 1 mps 762 mmHg 89%
    22:00 +12°C° 0 mm 1 mps 762 mmHg 89%
    23:00 +10°C° 0 mm 0 mps 762 mmHg 90%

    22 June, Saturday

    Time Temperature Precipitation Wind Pressure Humidity
    00:00 +10°C° 0 mm 0 mps 762 mmHg 90%
    01:00 +10°C° 0 mm 1 mps 762 mmHg 91%
    02:00 +10°C° 0 mm 1 mps 762 mmHg 92%
    03:00 +10°C° 0 mm 1 mps 762 mmHg 92%
    04:00 +11°C° 0 mm 1 mps 762 mmHg 92%
    05:00 +10°C° 0 mm 2 mps 762 mmHg 91%
    06:00 +12°C° 0 mm 2 mps 762 mmHg 90%
    07:00 +14°C° 0 mm 2 mps 762 mmHg 85%
    08:00 +16°C° 0 mm 2 mps 762 mmHg 80%
    09:00 +17°C° 0 mm 2 mps 762 mmHg 75%
    10:00 +18°C° 0.3 mm 3 mps 762 mmHg 74%
    11:00 +18°C° 0.3 mm 3 mps 762 mmHg 73%
    12:00 +19°C° 0.3 mm 3 mps 762 mmHg 72%
    13:00 +19°C° 0.7 mm 3 mps 762 mmHg 75%
    14:00 +18°C° 0.7 mm 3 mps 761 mmHg 78%
    15:00 +18°C° 0.7 mm 3 mps 761 mmHg 81%
    16:00 +17°C° 0.4 mm 3 mps 761 mmHg 82%
    17:00 +17°C° 0.4 mm 3 mps 761 mmHg 83%
    18:00 +17°C° 0.4 mm 3 mps 761 mmHg 85%
    19:00 +16°C° 0.1 mm 3 mps 761 mmHg 88%
    20:00 +13°C° 0.1 mm 3 mps 761 mmHg 91%
    21:00 +12°C° 0.1 mm 3 mps 762 mmHg 94%
    22:00 +11°C° 0 mm 3 mps 762 mmHg 94%
    23:00 +11°C° 0 mm 3 mps 761 mmHg 95%
    Show more